Groton, CT

8:11 AM EDT on April 21, 2018 (GMT -0400)
Groton-New London

Weather History for KGON - January, 2013

Change the Weather History Date:

Tuesday, January 15, 2013

  Actual Average Record
Temperature  
Mean Temperature 38 °F -  
Max Temperature 41 °F 35 °F 64 °F (2014)
Min Temperature 35 °F 19 °F -5 °F (1988)
Degree Days  
Heating Degree Days 27    
Moisture  
Dew Point 30 °F    
Average Humidity 75    
Maximum Humidity 93    
Minimum Humidity 62    
Precipitation  
Precipitation 0.06 in - - ()
Sea Level Pressure  
Sea Level Pressure 30.26 in    
Wind  
Wind Speed 8 mph (North)    
Max Wind Speed 12 mph    
Max Gust Speed -    
Visibility 9 miles    
Events Rain    
Averages and records for this station are not official NWS values.
T = Trace of Precipitation, MM = Missing Value Source: NWS Daily Summary

Daily Weather History Graph

Daily Weather History Graph

Search for Another Location

Airport or City:

Astronomy

Jan. 15, 2013 Rise Set
Actual Time 7:11 AM EST 4:44 PM EST
Civil Twilight 6:41 AM EST 5:14 PM EST
Nautical Twilight 6:07 AM EST 5:48 PM EST
Astronomical Twilight 5:34 AM EST 6:21 PM EST
Moon 9:12 AM EST (1/15) 9:34 PM EST (1/15)
Length of Visible Light 10h 33m
Length of Day
9h 32m
Waxing Crescent, 19% of the Moon is Illuminated
Jan 15
Waxing Crescent
Jan 18
First Quarter
Jan 26
Full
Feb 3
Last Quarter
Feb 10
New

Hourly Weather History & Observations

Time (EST) Temp. Windchill Dew Point Humidity Pressure Visibility Wind Dir Wind Speed Gust Speed Precip Events Conditions
12:56 AM 37.0 °F 29.8 °F 32.0 °F 82% 30.25 in 8.0 mi North 10.4 mph - 0.00 in Rain Light Rain
1:56 AM 36.0 °F 28.5 °F 34.0 °F 93% 30.28 in 7.0 mi North 10.4 mph - 0.01 in Rain Light Rain
2:56 AM 36.0 °F 28.0 °F 34.0 °F 93% 30.28 in 6.0 mi NNW 11.5 mph - 0.01 in Rain Light Rain
3:56 AM 35.1 °F 27.9 °F 33.1 °F 92% 30.22 in 4.0 mi NNE 9.2 mph - 0.04 in Rain Light Rain
4:56 AM 35.1 °F 29.3 °F 33.1 °F 92% 30.22 in 8.0 mi North 6.9 mph - 0.00 in Rain Light Rain
5:56 AM 36.0 °F 33.3 °F 34.0 °F 93% 30.24 in 8.0 mi North 3.5 mph - 0.00 in Rain Light Rain
6:10 AM 35.6 °F 32.8 °F 33.8 °F 93% 30.24 in 9.0 mi North 3.5 mph - 0.00 in   Overcast
6:56 AM 36.0 °F 31.1 °F 33.1 °F 89% 30.27 in 9.0 mi NNW 5.8 mph - 0.00 in   Overcast
7:56 AM 36.0 °F 30.3 °F 32.0 °F 86% 30.29 in 8.0 mi North 6.9 mph - N/A   Overcast
8:56 AM 37.0 °F 29.8 °F 30.9 °F 79% 30.31 in 8.0 mi North 10.4 mph - N/A   Overcast
9:18 AM 37.4 °F 30.8 °F 30.2 °F 75% 30.31 in 8.0 mi North 9.2 mph - N/A   Overcast
9:56 AM 37.9 °F 32.1 °F 30.0 °F 73% 30.31 in 9.0 mi North 8.1 mph - N/A   Overcast
10:56 AM 37.9 °F 30.9 °F 28.9 °F 70% 30.29 in 9.0 mi North 10.4 mph - N/A   Scattered Clouds
11:56 AM 39.0 °F 32.3 °F 28.0 °F 65% 30.29 in 10.0 mi North 10.4 mph - N/A   Mostly Cloudy
12:56 PM 39.9 °F 35.8 °F 28.9 °F 65% 30.26 in 9.0 mi North 5.8 mph - N/A   Mostly Cloudy
1:56 PM 39.9 °F 36.7 °F 28.9 °F 65% 30.26 in 9.0 mi NNW 4.6 mph - N/A   Overcast
2:56 PM 41.0 °F 37.1 °F 28.9 °F 62% 30.25 in 10.0 mi NE 5.8 mph - N/A   Overcast
3:56 PM 39.9 °F 37.8 °F 28.0 °F 63% 30.24 in 10.0 mi North 3.5 mph - N/A   Mostly Cloudy
4:56 PM 39.9 °F 36.7 °F 28.9 °F 65% 30.27 in 10.0 mi NW 4.6 mph - N/A   Overcast
5:56 PM 37.9 °F 32.7 °F 28.9 °F 70% 30.27 in 10.0 mi NNW 6.9 mph - N/A   Scattered Clouds
6:56 PM 37.9 °F 35.5 °F 28.0 °F 68% 30.26 in 10.0 mi North 3.5 mph - N/A   Overcast
7:56 PM 37.9 °F 34.4 °F 27.0 °F 65% 30.27 in 10.0 mi NNW 4.6 mph - N/A   Overcast
8:56 PM 37.9 °F 34.4 °F 26.1 °F 62% 30.25 in 10.0 mi North 4.6 mph - N/A   Overcast
9:56 PM 37.9 °F 35.5 °F 26.1 °F 62% 30.25 in 10.0 mi North 3.5 mph - N/A   Overcast
10:56 PM 37.0 °F 32.4 °F 26.1 °F 65% 30.22 in 10.0 mi NNE 5.8 mph - N/A   Overcast
11:56 PM 37.0 °F 33.3 °F 27.0 °F 67% 30.23 in 9.0 mi North 4.6 mph - 0.00 in   Overcast